Home   Weather   Papeete   Past weeks

Flag for French Polynesia Past Weather in Papeete, Tahiti, French Polynesia — Yesterday and Last 2 Weeks

Now
88 °F

Passing clouds.


Feels Like: 96 °F
Forecast: 72 / 89 °F
Wind: 13 mph from Northeast

Location: Tahiti-Faaa

Current Time: Dec 6, 2016 at 11:57:06 am

Latest Report: Dec 6, 2016 at 11:00 am


Visibility: N/A

Pressure: 29.89 "Hg

Humidity: 62%

Dew Point: 73 °F

Location of PapeeteLocation

Past Weather in Papeete — Graph

°F

Papeete Temperature Yesterday

Maximum temperature yesterday: 88 °F (at 1:00 pm)
Minimum temperature yesterday: 77 °F (at 12:00 am)
Average temperature yesterday: 82 °F

High & Low Weather Summary for the Past Weeks

 TemperatureHumidityPressure
High90 °F (Nov 25, 1:00 pm)94% (Nov 30, 1:17 am)29.98 "Hg (Nov 30, 1:17 am)
Low75 °F (Nov 23, 5:30 am)52% (Nov 21, 12:30 pm)29.77 "Hg (Dec 1, 2:30 am)
Average82 °F71%29.87 "Hg
* Reported Nov 21 10:00 am — Dec 6 10:30 am, Papeete, Weather by CustomWeather, © 2016

Note: Actual official high and low records may vary slightly from our data, if they occured in-between our weather recording intervals... More about our weather records

Advertising

Papeete Weather History for the Previous 24 Hours

Scroll right to see more
 ConditionsComfort  
Time TempWeatherWind HumidityBarometerVisibility
10:30 am
Tue, Dec 6
88 °FPassing clouds.14 mph59%29.89 "HgN/A
10:00 am88 °FPassing clouds.15 mph62%29.92 "HgN/A
9:30 am86 °FPassing clouds.16 mph62%29.92 "HgN/A
9:00 am86 °FPassing clouds.14 mph66%29.92 "HgN/A
8:00 am86 °FPassing clouds.6 mph55%29.92 "HgN/A
7:30 am84 °FPassing clouds.5 mph58%29.92 "HgN/A
7:00 am82 °FPassing clouds.5 mph66%29.92 "HgN/A
6:30 am81 °FPassing clouds.2 mph70%29.89 "HgN/A
6:00 am79 °FPassing clouds.5 mph74%29.89 "HgN/A
5:30 am77 °FWarm.3 mph79%29.89 "HgN/A
5:00 am79 °FWarm.5 mph74%29.89 "HgN/A
4:30 am77 °FWarm.2 mph79%29.89 "HgN/A
4:00 am77 °FWarm.2 mph79%29.86 "HgN/A
3:30 am79 °FWarm.2 mph74%29.86 "HgN/A
3:00 am79 °FPassing clouds.3 mph74%29.86 "HgN/A
2:30 am79 °FPassing clouds.2 mph74%29.86 "HgN/A
2:00 am77 °FPassing clouds.5 mph83%29.86 "HgN/A
1:35 am79 °FPassing clouds.No wind79%29.86 "HgN/A
1:00 am79 °FPassing clouds.2 mph79%29.86 "HgN/A
12:30 am79 °FPassing clouds.3 mph79%29.89 "HgN/A
12:00 am79 °FPassing clouds.3 mph79%29.89 "HgN/A
11:30 pm
Mon, Dec 5
79 °FPassing clouds.2 mph79%29.89 "HgN/A
11:00 pm79 °FPassing clouds.2 mph74%29.89 "HgN/A
10:30 pm79 °FPassing clouds.5 mph74%29.89 "HgN/A
10:00 pm81 °FPassing clouds.2 mph70%29.89 "HgN/A
9:30 pm81 °FPassing clouds.2 mph74%29.89 "HgN/A
9:00 pm81 °FPassing clouds.6 mph70%29.89 "HgN/A
8:30 pm82 °FPassing clouds.7 mph62%29.89 "HgN/A
8:00 pm82 °FPassing clouds.3 mph70%29.89 "HgN/A
7:30 pm84 °FPassing clouds.3 mph66%29.89 "HgN/A
7:00 pm84 °FPassing clouds.5 mph70%29.89 "HgN/A
6:30 pm84 °FPassing clouds.2 mph70%29.86 "HgN/A
6:00 pm86 °FScattered clouds.6 mph59%29.86 "HgN/A
5:30 pm86 °FPartly sunny.10 mph66%29.86 "HgN/A
5:00 pm88 °FScattered clouds.5 mph59%29.83 "HgN/A
4:30 pm86 °FScattered clouds.12 mph62%29.83 "HgN/A
4:00 pm88 °FPassing clouds.17 mph59%29.83 "HgN/A
3:30 pm88 °FPassing clouds.18 mph59%29.80 "HgN/A
3:00 pm88 °FPassing clouds.17 mph59%29.83 "HgN/A
2:30 pm88 °FPassing clouds.6 mph59%29.83 "HgN/A
2:00 pm88 °FPassing clouds.9 mph62%29.86 "HgN/A
1:30 pm88 °FPassing clouds.8 mph59%29.86 "HgN/A
1:00 pm88 °FPassing clouds.12 mph62%29.86 "HgN/A
12:30 pm86 °FPassing clouds.10 mph62%29.86 "HgN/A
12:00 pm86 °FPassing clouds.9 mph66%29.89 "HgN/A
11:30 am86 °FPassing clouds.10 mph66%29.89 "HgN/A
11:00 am86 °FPassing clouds.8 mph62%29.89 "HgN/A
Weather by CustomWeather, © 2016

See weather overviewHow to use our weather pages